| time (UTC) | temp C | wind direction | speed KPH | gust KPH | rain 1hr cm | rain 24hr cm | rain mn cm | humidity % | barometer mb |
| 20260507202503 | 16 | 291 | 4.8 | 19.3 | 0.00 | 0.69 | 0.13 | 32 | 1004.9 |
| 20260507202002 | 17 | 293 | 6.4 | 19.3 | 0.00 | 0.71 | 0.13 | 32 | 1005.0 |
| 20260507201502 | 16 | 309 | 8.0 | 20.9 | 0.00 | 0.74 | 0.13 | 33 | 1004.9 |
| 20260507201003 | 16 | 321 | 11.3 | 20.9 | 0.00 | 0.76 | 0.13 | 31 | 1005.0 |
| 20260507200523 | 16 | 288 | 8.0 | 22.5 | 0.00 | 0.76 | 0.13 | 30 | 1005.0 |
| 20260507200002 | 17 | 323 | 12.9 | 22.5 | 0.00 | 0.76 | 0.13 | 30 | 1005.0 |
| 20260507195502 | 17 | 305 | 8.0 | 19.3 | 0.00 | 0.76 | 0.13 | 32 | 1005.0 |
| 20260507195003 | 17 | 289 | 4.8 | 24.1 | 0.00 | 0.76 | 0.13 | 30 | 1005.1 |
| 20260507194502 | 16 | 291 | 4.8 | 24.1 | 0.00 | 0.79 | 0.13 | 32 | 1005.3 |
| 20260507194002 | 17 | 309 | 11.3 | 24.1 | 0.00 | 0.79 | 0.13 | 30 | 1005.3 |
| 20260507193502 | 17 | 300 | 4.8 | 19.3 | 0.00 | 0.81 | 0.13 | 33 | 1005.3 |
| 20260507193023 | 16 | 216 | 9.7 | 17.7 | 0.00 | 0.81 | 0.13 | 30 | 1005.2 |
| 20260507192502 | 17 | 256 | 4.8 | 16.1 | 0.00 | 0.81 | 0.13 | 31 | 1005.5 |
| 20260507192023 | 17 | 253 | 4.8 | 24.1 | 0.00 | 0.81 | 0.13 | 31 | 1005.4 |
| 20260507191523 | 17 | 288 | 11.3 | 24.1 | 0.00 | 0.84 | 0.13 | 30 | 1005.7 |
| 20260507191003 | 16 | 49 | 1.6 | 27.4 | 0.00 | 0.84 | 0.13 | 32 | 1005.5 |
| 20260507190503 | 16 | 275 | 8.0 | 27.4 | 0.00 | 0.84 | 0.13 | 30 | 1005.8 |
| 20260507190003 | 17 | 227 | 8.0 | 19.3 | 0.00 | 0.84 | 0.13 | 30 | 1005.6 |
| 20260507185502 | 17 | 188 | 6.4 | 38.6 | 0.00 | 0.84 | 0.13 | 30 | 1005.7 |
| 20260507185002 | 17 | 265 | 11.3 | 38.6 | 0.00 | 0.84 | 0.13 | 29 | 1005.7 |
| 20260507184002 | 17 | 208 | 4.8 | 29.0 | 0.00 | 0.84 | 0.13 | 30 | 1005.8 |
| 20260507183503 | 17 | 305 | 8.0 | 25.7 | 0.00 | 0.84 | 0.13 | 31 | 1005.8 |
| 20260507183002 | 17 | 233 | 8.0 | 24.1 | 0.00 | 0.84 | 0.13 | 29 | 1005.8 |
| 20260507182502 | 17 | 225 | 4.8 | 24.1 | 0.00 | 0.84 | 0.13 | 30 | 1005.8 |
| 20260507182002 | 17 | 283 | 8.0 | 17.7 | 0.00 | 0.84 | 0.13 | 33 | 1005.9 |
| 20260507181502 | 17 | 289 | 8.0 | 20.9 | 0.00 | 0.84 | 0.13 | 31 | 1006.0 |
| 20260507181002 | 16 | 298 | 9.7 | 27.4 | 0.00 | 0.84 | 0.13 | 31 | 1006.0 |
| 20260507180502 | 16 | 294 | 11.3 | 29.0 | 0.00 | 0.84 | 0.13 | 31 | 1006.1 |
| 20260507180002 | 17 | 316 | 19.3 | 29.0 | 0.00 | 0.84 | 0.13 | 30 | 1006.1 |
| 20260507175002 | 17 | 245 | 8.0 | 25.7 | 0.00 | 0.84 | 0.13 | 30 | 1006.1 |
| 20260507174504 | 17 | 319 | 12.9 | 22.5 | 0.00 | 0.84 | 0.13 | 33 | 1006.1 |
| 20260507174002 | 17 | 306 | 6.4 | 20.9 | 0.00 | 0.84 | 0.13 | 33 | 1005.9 |
| 20260507173502 | 16 | 302 | 8.0 | 20.9 | 0.00 | 0.84 | 0.13 | 33 | 1005.9 |
| 20260507173003 | 16 | 284 | 4.8 | 22.5 | 0.00 | 0.84 | 0.13 | 31 | 1005.9 |
| 20260507172502 | 16 | 314 | 11.3 | 27.4 | 0.00 | 0.84 | 0.13 | 33 | 1006.0 |
| 20260507172023 | 17 | 230 | 6.4 | 27.4 | 0.00 | 0.84 | 0.13 | 34 | 1006.1 |
| 20260507171503 | 16 | 298 | 9.7 | 27.4 | 0.00 | 0.84 | 0.13 | 33 | 1006.1 |
| 20260507171002 | 16 | 318 | 6.4 | 27.4 | 0.00 | 0.84 | 0.13 | 33 | 1006.3 |
| 20260507170502 | 17 | 321 | 11.3 | 25.7 | 0.00 | 0.84 | 0.13 | 33 | 1006.3 |
| 20260507170002 | 16 | 308 | 9.7 | 22.5 | 0.00 | 0.84 | 0.13 | 38 | 1006.2 |
| 20260507165503 | 16 | 251 | 9.7 | 17.7 | 0.00 | 0.84 | 0.13 | 39 | 1006.3 |
| 20260507165002 | 17 | 220 | 4.8 | 20.9 | 0.00 | 0.84 | 0.13 | 38 | 1006.4 |
| 20260507164502 | 17 | 285 | 8.0 | 20.9 | 0.00 | 0.84 | 0.13 | 38 | 1006.5 |
| 20260507164023 | 16 | 307 | 8.0 | 22.5 | 0.00 | 0.84 | 0.13 | 38 | 1006.5 |
| 20260507163503 | 16 | 211 | 8.0 | 22.5 | 0.00 | 0.84 | 0.13 | 42 | 1006.3 |
| 20260507163002 | 16 | 303 | 11.3 | 19.3 | 0.00 | 0.84 | 0.13 | 41 | 1006.5 |
| 20260507162523 | 16 | 294 | 6.4 | 20.9 | 0.00 | 0.84 | 0.13 | 46 | 1006.6 |
| 20260507162023 | 16 | 282 | 8.0 | 22.5 | 0.00 | 0.84 | 0.13 | 49 | 1006.6 |
| 20260507161503 | 15 | 281 | 4.8 | 22.5 | 0.00 | 0.84 | 0.13 | 47 | 1006.7 |
| 20260507161023 | 15 | 292 | 9.7 | 20.9 | 0.00 | 0.84 | 0.13 | 49 | 1006.7 |
| 20260507160502 | 15 | 207 | 11.3 | 20.9 | 0.00 | 0.84 | 0.13 | 52 | 1006.5 |
| 20260507160002 | 15 | 298 | 3.2 | 22.5 | 0.00 | 0.84 | 0.13 | 52 | 1006.7 |
| 20260507155502 | 15 | 293 | 3.2 | 22.5 | 0.00 | 0.84 | 0.13 | 57 | 1006.8 |
| 20260507155002 | 15 | 306 | 11.3 | 22.5 | 0.00 | 0.84 | 0.13 | 51 | 1006.7 |
| 20260507154503 | 15 | 341 | 3.2 | 8.0 | 0.00 | 0.84 | 0.13 | 57 | 1006.7 |
| 20260507154003 | 14 | 260 | 1.6 | 22.5 | 0.00 | 0.84 | 0.13 | 58 | 1006.8 |
| 20260507153523 | 14 | 322 | 8.0 | 22.5 | 0.00 | 0.84 | 0.13 | 53 | 1006.8 |
| 20260507153002 | 15 | 313 | 9.7 | 22.5 | 0.00 | 0.84 | 0.13 | 54 | 1006.8 |
| 20260507152502 | 15 | 317 | 6.4 | 16.1 | 0.00 | 0.84 | 0.13 | 53 | 1006.8 |
| 20260507152002 | 15 | 234 | 4.8 | 14.5 | 0.00 | 0.84 | 0.13 | 56 | 1007.0 |
| 20260507151524 | 14 | 198 | 4.8 | 16.1 | 0.00 | 0.84 | 0.13 | 53 | 1007.0 |
| 20260507151002 | 14 | 270 | 6.4 | 16.1 | 0.00 | 0.84 | 0.13 | 54 | 1007.0 |
| 20260507150502 | 14 | 256 | 3.2 | 14.5 | 0.00 | 0.84 | 0.13 | 54 | 1007.1 |
| 20260507150002 | 14 | 296 | 1.6 | 14.5 | 0.00 | 0.84 | 0.13 | 52 | 1007.2 |
| 20260507145502 | 15 | 299 | 8.0 | 14.5 | 0.00 | 0.84 | 0.13 | 51 | 1007.2 |
| 20260507145002 | 14 | 319 | 3.2 | 22.5 | 0.00 | 0.84 | 0.13 | 52 | 1007.2 |
| 20260507144523 | 15 | 211 | 4.8 | 25.7 | 0.00 | 0.84 | 0.13 | 51 | 1007.3 |
| 20260507144003 | 15 | 324 | 12.9 | 25.7 | 0.00 | 0.84 | 0.13 | 49 | 1007.2 |
| 20260507143523 | 15 | 268 | 4.8 | 20.9 | 0.00 | 0.84 | 0.13 | 51 | 1007.3 |
| 20260507143002 | 15 | 235 | 6.4 | 14.5 | 0.00 | 0.84 | 0.13 | 51 | 1007.2 |
| 20260507142502 | 15 | 261 | 3.2 | 19.3 | 0.00 | 0.84 | 0.13 | 51 | 1007.3 |
| 20260507142002 | 14 | 336 | 9.7 | 19.3 | 0.00 | 0.84 | 0.13 | 52 | 1007.3 |
| 20260507141502 | 15 | 318 | 6.4 | 16.1 | 0.00 | 0.84 | 0.13 | 50 | 1007.3 |
| 20260507141023 | 14 | 250 | 4.8 | 16.1 | 0.00 | 0.84 | 0.13 | 50 | 1007.1 |
| 20260507140503 | 14 | 206 | 3.2 | 12.9 | 0.00 | 0.84 | 0.13 | 52 | 1007.1 |
| 20260507140002 | 14 | 278 | 3.2 | 12.9 | 0.00 | 0.84 | 0.13 | 56 | 1007.2 |
| 20260507135503 | 14 | 249 | 3.2 | 14.5 | 0.00 | 0.84 | 0.13 | 52 | 1007.1 |
| 20260507135002 | 14 | 316 | 3.2 | 14.5 | 0.00 | 0.84 | 0.13 | 53 | 1007.1 |
| 20260507134503 | 13 | 357 | 6.4 | 12.9 | 0.00 | 0.84 | 0.13 | 53 | 1007.0 |
| 20260507134002 | 13 | 277 | 3.2 | 12.9 | 0.00 | 0.84 | 0.13 | 57 | 1007.1 |
| 20260507133502 | 13 | 288 | 6.4 | 12.9 | 0.00 | 0.84 | 0.13 | 54 | 1007.2 |
| 20260507133002 | 13 | 257 | 3.2 | 9.7 | 0.00 | 0.84 | 0.13 | 57 | 1007.2 |
| 20260507132524 | 13 | 304 | 4.8 | 20.9 | 0.00 | 0.84 | 0.13 | 58 | 1007.4 |
| 20260507132023 | 13 | 320 | 8.0 | 20.9 | 0.00 | 0.84 | 0.13 | 58 | 1007.4 |
| 20260507131502 | 13 | 309 | 9.7 | 16.1 | 0.00 | 0.84 | 0.13 | 57 | 1007.7 |
| 20260507131002 | 12 | 294 | 8.0 | 16.1 | 0.00 | 0.84 | 0.13 | 57 | 1007.8 |
| 20260507130502 | 12 | 311 | 6.4 | 16.1 | 0.00 | 0.84 | 0.13 | 60 | 1007.7 |
| 20260507130003 | 12 | 288 | 6.4 | 16.1 | 0.00 | 0.84 | 0.13 | 62 | 1007.7 |
| 20260507125502 | 12 | 312 | 6.4 | 14.5 | 0.00 | 0.84 | 0.13 | 63 | 1007.7 |
| 20260507125002 | 12 | 309 | 6.4 | 14.5 | 0.00 | 0.84 | 0.13 | 64 | 1007.8 |
| 20260507124502 | 12 | 293 | 1.6 | 20.9 | 0.00 | 0.84 | 0.13 | 67 | 1007.7 |
| 20260507124002 | 12 | 300 | 8.0 | 20.9 | 0.00 | 0.84 | 0.13 | 65 | 1007.7 |
| 20260507123502 | 12 | 292 | 4.8 | 11.3 | 0.00 | 0.84 | 0.13 | 66 | 1007.8 |
| 20260507123023 | 12 | 225 | 1.6 | 14.5 | 0.00 | 0.84 | 0.13 | 69 | 1007.8 |
| 20260507122525 | 11 | 302 | 1.6 | 14.5 | 0.00 | 0.84 | 0.13 | 69 | 1007.8 |
| 20260507122045 | 11 | 277 | 1.6 | 12.9 | 0.00 | 0.84 | 0.13 | 70 | 1007.8 |
| 20260507121503 | 11 | 320 | 1.6 | 16.1 | 0.00 | 0.84 | 0.13 | 72 | 1007.8 |
| 20260507121002 | 11 | 310 | 8.0 | 16.1 | 0.00 | 0.84 | 0.13 | 71 | 1008.0 |
| 20260507120502 | 11 | 296 | 3.2 | 12.9 | 0.00 | 0.84 | 0.13 | 73 | 1008.0 |
| 20260507120002 | 11 | 215 | 1.6 | 12.9 | 0.00 | 0.84 | 0.13 | 75 | 1007.9 |
| 20260507115502 | 10 | 305 | 3.2 | 9.7 | 0.00 | 0.84 | 0.13 | 77 | 1007.8 |
| 20260507115002 | 10 | 278 | 3.2 | 9.7 | 0.00 | 0.84 | 0.13 | 79 | 1007.8 |
| 20260507114002 | 10 | 222 | 1.6 | 14.5 | 0.00 | 0.84 | 0.13 | 81 | 1007.8 |
| 20260507113502 | 10 | 295 | 3.2 | 14.5 | 0.00 | 0.84 | 0.13 | 80 | 1007.7 |
| 20260507113023 | 10 | 299 | 1.6 | 12.9 | 0.00 | 0.84 | 0.13 | 81 | 1007.8 |
| 20260507112502 | 9 | 314 | 1.6 | 9.7 | 0.00 | 0.84 | 0.13 | 80 | 1007.3 |
| 20260507112003 | 9 | 281 | 3.2 | 9.7 | 0.00 | 0.84 | 0.13 | 80 | 1007.3 |
| 20260507111503 | 9 | 321 | 4.8 | 11.3 | 0.00 | 0.84 | 0.13 | 80 | 1007.2 |
| 20260507111003 | 9 | 305 | 1.6 | 11.3 | 0.00 | 0.84 | 0.13 | 81 | 1007.5 |
| 20260507110502 | 9 | 312 | 3.2 | 11.3 | 0.00 | 0.84 | 0.13 | 79 | 1007.5 |
| 20260507110044 | 9 | 250 | 3.2 | 11.3 | 0.00 | 0.84 | 0.13 | 80 | 1007.7 |
| 20260507105502 | 9 | 296 | 1.6 | 9.7 | 0.00 | 0.84 | 0.13 | 81 | 1007.6 |
| 20260507105003 | 9 | 294 | 1.6 | 9.7 | 0.00 | 0.84 | 0.13 | 80 | 1007.2 |
| 20260507104502 | 9 | 292 | 4.8 | 14.5 | 0.00 | 0.84 | 0.13 | 83 | 1007.1 |
| 20260507104023 | 9 | 307 | 8.0 | 14.5 | 0.00 | 0.84 | 0.13 | 83 | 1007.0 |
| 20260507103503 | 9 | 325 | 1.6 | 14.5 | 0.00 | 0.84 | 0.13 | 83 | 1006.9 |
| 20260507103002 | 9 | 328 | 8.0 | 17.7 | 0.00 | 0.84 | 0.13 | 83 | 1006.8 |
| 20260507102503 | 9 | 321 | 6.4 | 17.7 | 0.00 | 0.84 | 0.13 | 83 | 1006.7 |
| 20260507102002 | 9 | 319 | 4.8 | 14.5 | 0.00 | 0.84 | 0.13 | 83 | 1006.7 |
| 20260507101502 | 9 | 309 | 3.2 | 16.1 | 0.00 | 0.84 | 0.13 | 84 | 1007.0 |
| 20260507101024 | 9 | 300 | 8.0 | 16.1 | 0.00 | 0.84 | 0.13 | 85 | 1007.0 |
| 20260507100502 | 9 | 309 | 4.8 | 14.5 | 0.00 | 0.84 | 0.13 | 85 | 1006.9 |
| 20260507100003 | 9 | 292 | 6.4 | 11.3 | 0.00 | 0.84 | 0.13 | 86 | 1006.8 |
| 20260507095502 | 9 | 290 | 4.8 | 8.0 | 0.00 | 0.84 | 0.13 | 87 | 1006.6 |
| 20260507095003 | 9 | 290 | 3.2 | 8.0 | 0.00 | 0.84 | 0.13 | 88 | 1007.2 |
| 20260507094503 | 9 | 212 | 1.6 | 4.8 | 0.00 | 0.84 | 0.13 | 88 | 1007.3 |
| 20260507094045 | 9 | 174 | 1.6 | 4.8 | 0.00 | 0.84 | 0.13 | 88 | 1006.8 |
| 20260507093502 | 9 | 246 | 1.6 | 4.8 | 0.00 | 0.84 | 0.13 | 88 | 1007.1 |
| 20260507093003 | 9 | 242 | 1.6 | 6.4 | 0.00 | 0.84 | 0.13 | 88 | 1007.1 |
| 20260507092502 | 9 | 304 | 1.6 | 6.4 | 0.00 | 0.84 | 0.13 | 88 | 1006.9 |
| 20260507092002 | 9 | 214 | 0.0 | 4.8 | 0.00 | 0.84 | 0.13 | 89 | 1007.1 |
| 20260507091524 | 9 | 209 | 1.6 | 4.8 | 0.00 | 0.84 | 0.13 | 89 | 1007.3 |
| 20260507091002 | 9 | 287 | 1.6 | 8.0 | 0.00 | 0.84 | 0.13 | 89 | 1007.2 |
| 20260507090502 | 9 | 269 | 1.6 | 8.0 | 0.00 | 0.84 | 0.13 | 87 | 1007.2 |
| 20260507090003 | 9 | 225 | 1.6 | 8.0 | 0.00 | 0.84 | 0.13 | 87 | 1007.0 |
| 20260507085002 | 9 | 288 | 4.8 | 12.9 | 0.00 | 0.84 | 0.13 | 86 | 1006.8 |
| 20260507084502 | 9 | 315 | 1.6 | 4.8 | 0.00 | 0.84 | 0.13 | 86 | 1006.7 |
| 20260507084003 | 9 | 305 | 1.6 | 12.9 | 0.00 | 0.84 | 0.13 | 85 | 1007.0 |
| 20260507083502 | 9 | 291 | 1.6 | 17.7 | 0.00 | 0.84 | 0.13 | 86 | 1007.0 |
| 20260507083002 | 9 | 298 | 8.0 | 17.7 | 0.00 | 0.84 | 0.13 | 87 | 1006.7 |
| 20260507082502 | 10 | 306 | 1.6 | 4.8 | 0.00 | 0.84 | 0.13 | 88 | 1006.7 |
| 20260507082003 | 10 | 294 | 1.6 | 4.8 | 0.00 | 0.84 | 0.13 | 88 | 1006.7 |
| 20260507081545 | 10 | 284 | 1.6 | 6.4 | 0.00 | 0.84 | 0.13 | 87 | 1006.9 |
| 20260507081002 | 10 | 277 | 1.6 | 8.0 | 0.00 | 0.84 | 0.13 | 87 | 1006.7 |
| 20260507080502 | 10 | 282 | 3.2 | 8.0 | 0.00 | 0.84 | 0.13 | 87 | 1006.7 |
| 20260507080003 | 10 | 288 | 3.2 | 14.5 | 0.03 | 0.84 | 0.13 | 85 | 1006.9 |
| 20260507075502 | 10 | 316 | 3.2 | 14.5 | 0.03 | 0.84 | 0.13 | 85 | 1007.0 |
| 20260507075002 | 10 | 331 | 3.2 | 14.5 | 0.00 | 0.81 | 0.10 | 83 | 1006.9 |
| 20260507074524 | 10 | 325 | 4.8 | 14.5 | 0.00 | 0.81 | 0.10 | 84 | 1006.9 |
| 20260507074023 | 10 | 283 | 3.2 | 9.7 | 0.00 | 0.81 | 0.10 | 85 | 1007.1 |
| 20260507073502 | 10 | 305 | 3.2 | 8.0 | 0.00 | 0.81 | 0.10 | 84 | 1006.9 |
| 20260507073002 | 10 | 288 | 3.2 | 8.0 | 0.00 | 0.81 | 0.10 | 84 | 1006.7 |
| 20260507072502 | 10 | 317 | 3.2 | 6.4 | 0.00 | 0.81 | 0.10 | 84 | 1006.5 |
| 20260507072003 | 10 | 231 | 3.2 | 14.5 | 0.00 | 0.81 | 0.10 | 84 | 1006.4 |
| 20260507071523 | 10 | 320 | 4.8 | 14.5 | 0.00 | 0.81 | 0.10 | 84 | 1006.2 |
| 20260507071002 | 10 | 306 | 4.8 | 9.7 | 0.00 | 0.81 | 0.10 | 85 | 1006.3 |
| 20260507070503 | 10 | 310 | 1.6 | 9.7 | 0.00 | 0.81 | 0.10 | 86 | 1006.6 |
| 20260507070024 | 10 | 300 | 3.2 | 11.3 | 0.00 | 0.81 | 0.10 | 87 | 1006.3 |
| 20260507065502 | 10 | 325 | 1.6 | 11.3 | 0.00 | 0.81 | 0.10 | 86 | 1006.2 |
| 20260507065002 | 10 | 321 | 3.2 | 6.4 | 0.00 | 0.81 | 0.10 | 88 | 1006.2 |
| 20260507064503 | 10 | 244 | 1.6 | 4.8 | 0.00 | 0.81 | 0.10 | 88 | 1006.2 |
| 20260507064002 | 10 | 237 | 1.6 | 4.8 | 0.00 | 0.81 | 0.10 | 88 | 1006.3 |
| 20260507063502 | 10 | 274 | 1.6 | 4.8 | 0.00 | 0.81 | 0.10 | 87 | 1006.1 |
| 20260507063023 | 10 | 238 | 1.6 | 6.4 | 0.00 | 0.81 | 0.10 | 86 | 1006.4 |
| 20260507062503 | 10 | 274 | 0.0 | 6.4 | 0.00 | 0.81 | 0.10 | 84 | 1006.1 |
| 20260507062002 | 10 | 303 | 0.0 | 8.0 | 0.00 | 0.81 | 0.10 | 84 | 1006.0 |
| 20260507061502 | 10 | 319 | 4.8 | 16.1 | 0.00 | 0.81 | 0.10 | 83 | 1006.0 |
| 20260507061023 | 10 | 313 | 3.2 | 16.1 | 0.00 | 0.81 | 0.10 | 83 | 1006.1 |
| 20260507060502 | 10 | 294 | 3.2 | 12.9 | 0.00 | 0.81 | 0.10 | 83 | 1006.1 |
| 20260507060003 | 11 | 290 | 3.2 | 17.7 | 0.00 | 0.81 | 0.10 | 83 | 1006.2 |
| 20260507055502 | 11 | 308 | 8.0 | 17.7 | 0.00 | 0.81 | 0.10 | 83 | 1006.2 |
| 20260507055003 | 11 | 320 | 6.4 | 16.1 | 0.00 | 0.81 | 0.10 | 84 | 1006.3 |
| 20260507054502 | 11 | 284 | 4.8 | 16.1 | 0.00 | 0.81 | 0.10 | 85 | 1006.4 |
| 20260507054002 | 11 | 289 | 9.7 | 16.1 | 0.00 | 0.81 | 0.10 | 86 | 1006.5 |
| 20260507053502 | 11 | 289 | 4.8 | 12.9 | 0.00 | 0.81 | 0.10 | 86 | 1006.3 |
| 20260507053003 | 11 | 277 | 3.2 | 16.1 | 0.00 | 0.81 | 0.10 | 87 | 1006.3 |
| 20260507052502 | 11 | 302 | 4.8 | 16.1 | 0.00 | 0.81 | 0.10 | 86 | 1006.3 |
| 20260507052003 | 11 | 301 | 8.0 | 16.1 | 0.00 | 0.81 | 0.10 | 86 | 1006.5 |
| 20260507051502 | 11 | 305 | 6.4 | 14.5 | 0.00 | 0.81 | 0.10 | 87 | 1006.7 |
| 20260507051002 | 11 | 281 | 4.8 | 14.5 | 0.00 | 0.81 | 0.10 | 87 | 1006.6 |
| 20260507050502 | 11 | 277 | 4.8 | 12.9 | 0.00 | 0.81 | 0.10 | 88 | 1006.4 |
| 20260507050003 | 12 | 288 | 3.2 | 17.7 | 0.10 | 0.81 | 0.10 | 89 | 1006.5 |
| 20260507045503 | 12 | 308 | 3.2 | 17.7 | 0.10 | 0.81 | 0.10 | 89 | 1006.5 |
| 20260507045002 | 12 | 289 | 3.2 | 17.7 | 0.10 | 0.81 | 0.10 | 89 | 1006.4 |
| 20260507044503 | 12 | 278 | 4.8 | 17.7 | 0.10 | 0.81 | 0.10 | 89 | 1006.4 |
| 20260507044002 | 12 | 306 | 8.0 | 17.7 | 0.10 | 0.81 | 0.10 | 90 | 1006.2 |
| 20260507043503 | 13 | 305 | 4.8 | 16.1 | 0.10 | 0.81 | 0.10 | 90 | 1006.2 |
| 20260507043002 | 13 | 304 | 4.8 | 14.5 | 0.10 | 0.81 | 0.10 | 90 | 1006.2 |
| 20260507042502 | 13 | 310 | 8.0 | 14.5 | 0.08 | 0.79 | 0.08 | 90 | 1006.2 |
| 20260507042002 | 13 | 311 | 3.2 | 12.9 | 0.08 | 0.79 | 0.08 | 90 | 1006.2 |
| 20260507041502 | 13 | 318 | 6.4 | 14.5 | 0.08 | 0.79 | 0.08 | 89 | 1006.3 |
| 20260507041002 | 13 | 312 | 4.8 | 20.9 | 0.08 | 0.79 | 0.08 | 88 | 1006.4 |
| 20260507040502 | 13 | 303 | 11.3 | 20.9 | 0.05 | 0.76 | 0.05 | 88 | 1006.4 |
| 20260507040003 | 13 | 303 | 4.8 | 20.9 | 0.00 | 0.00 | 0.00 | 89 | 1006.2 |
| 20260507035502 | 14 | 259 | 1.6 | 14.5 | 0.00 | 0.71 | 0.71 | 91 | 1006.2 |
| 20260507035003 | 14 | 315 | 1.6 | 14.5 | 0.00 | 0.71 | 0.71 | 91 | 1005.9 |
| 20260507034502 | 14 | 223 | 0.0 | 4.8 | 0.00 | 0.71 | 0.71 | 91 | 1005.8 |
| 20260507034025 | 14 | 241 | 1.6 | 6.4 | 0.00 | 0.71 | 0.71 | 91 | 1005.9 |
| 20260507033502 | 14 | 234 | 1.6 | 16.1 | 0.00 | 0.71 | 0.71 | 90 | 1005.8 |
| 20260507033003 | 15 | 249 | 3.2 | 17.7 | 0.00 | 0.71 | 0.71 | 91 | 1005.6 |
| 20260507032523 | 15 | 295 | 4.8 | 19.3 | 0.00 | 0.71 | 0.71 | 91 | 1005.6 |
| 20260507032023 | 15 | 273 | 8.0 | 19.3 | 0.00 | 0.71 | 0.71 | 92 | 1005.5 |
| 20260507031503 | 15 | 219 | 4.8 | 12.9 | 0.00 | 0.71 | 0.71 | 92 | 1005.4 |
| 20260507031002 | 15 | 274 | 4.8 | 12.9 | 0.00 | 0.71 | 0.71 | 92 | 1005.4 |
| 20260507030503 | 15 | 241 | 3.2 | 16.1 | 0.00 | 0.71 | 0.71 | 92 | 1005.1 |
| 20260507030003 | 15 | 206 | 6.4 | 16.1 | 0.00 | 0.71 | 0.71 | 92 | 1005.1 |
| 20260507025503 | 15 | 211 | 4.8 | 16.1 | 0.00 | 0.71 | 0.71 | 92 | 1005.1 |
| 20260507025002 | 15 | 208 | 8.0 | 17.7 | 0.00 | 0.71 | 0.71 | 92 | 1005.1 |
| 20260507024503 | 15 | 193 | 8.0 | 17.7 | 0.00 | 0.71 | 0.71 | 92 | 1005.1 |
| 20260507024003 | 15 | 188 | 8.0 | 17.7 | 0.00 | 0.71 | 0.71 | 91 | 1005.2 |
| 20260507023502 | 15 | 195 | 9.7 | 17.7 | 0.00 | 0.71 | 0.71 | 91 | 1005.3 |
| 20260507023002 | 15 | 192 | 9.7 | 14.5 | 0.00 | 0.71 | 0.71 | 92 | 1005.2 |
| 20260507022502 | 15 | 208 | 8.0 | 14.5 | 0.00 | 0.71 | 0.71 | 92 | 1005.2 |
| 20260507022002 | 15 | 198 | 9.7 | 16.1 | 0.00 | 0.71 | 0.71 | 92 | 1005.1 |
| 20260507021524 | 15 | 192 | 6.4 | 17.7 | 0.00 | 0.71 | 0.71 | 92 | 1005.1 |
| 20260507021002 | 15 | 205 | 6.4 | 17.7 | 0.00 | 0.71 | 0.71 | 92 | 1005.1 |
| 20260507020503 | 15 | 186 | 8.0 | 16.1 | 0.00 | 0.71 | 0.71 | 92 | 1004.9 |
| 20260507020024 | 15 | 200 | 9.7 | 17.7 | 0.00 | 0.71 | 0.71 | 91 | 1005.0 |
| 20260507015503 | 15 | 202 | 9.7 | 17.7 | 0.00 | 0.71 | 0.71 | 91 | 1005.3 |
| 20260507015023 | 15 | 192 | 11.3 | 16.1 | 0.00 | 0.71 | 0.71 | 91 | 1005.2 |
| 20260507014502 | 15 | 190 | 8.0 | 16.1 | 0.00 | 0.71 | 0.71 | 91 | 1005.4 |
| 20260507014002 | 15 | 196 | 9.7 | 17.7 | 0.00 | 0.71 | 0.71 | 91 | 1005.3 |
| 20260507013502 | 15 | 202 | 6.4 | 17.7 | 0.00 | 0.71 | 0.71 | 91 | 1005.2 |
| 20260507013003 | 15 | 199 | 11.3 | 17.7 | 0.00 | 0.71 | 0.71 | 91 | 1005.3 |
| 20260507012502 | 15 | 195 | 8.0 | 17.7 | 0.00 | 0.71 | 0.71 | 92 | 1005.5 |
| 20260507012003 | 15 | 181 | 9.7 | 17.7 | 0.00 | 0.71 | 0.71 | 92 | 1005.4 |
| 20260507011502 | 15 | 201 | 8.0 | 22.5 | 0.00 | 0.71 | 0.71 | 92 | 1005.5 |
| 20260507011003 | 15 | 199 | 9.7 | 22.5 | 0.00 | 0.71 | 0.71 | 92 | 1005.5 |
| 20260507010502 | 15 | 198 | 8.0 | 16.1 | 0.00 | 0.71 | 0.71 | 92 | 1005.5 |
| 20260507010003 | 15 | 195 | 9.7 | 17.7 | 0.03 | 0.71 | 0.71 | 92 | 1005.6 |
| 20260507005502 | 15 | 202 | 6.4 | 17.7 | 0.03 | 0.71 | 0.71 | 92 | 1005.5 |
| 20260507005023 | 15 | 211 | 8.0 | 19.3 | 0.03 | 0.71 | 0.71 | 92 | 1005.4 |
| 20260507004524 | 15 | 201 | 11.3 | 19.3 | 0.03 | 0.71 | 0.71 | 92 | 1005.5 |
| 20260507004002 | 15 | 186 | 8.0 | 22.5 | 0.03 | 0.71 | 0.71 | 92 | 1005.4 |
| 20260507003524 | 15 | 191 | 12.9 | 22.5 | 0.00 | 0.69 | 0.69 | 92 | 1005.3 |
| 20260507003003 | 15 | 187 | 8.0 | 19.3 | 0.00 | 0.69 | 0.69 | 92 | 1005.2 |
| 20260507002523 | 15 | 204 | 8.0 | 17.7 | 0.00 | 0.69 | 0.69 | 92 | 1005.2 |
| 20260507002003 | 15 | 189 | 9.7 | 19.3 | 0.00 | 0.69 | 0.69 | 92 | 1005.3 |
| 20260507001502 | 15 | 189 | 9.7 | 19.3 | 0.00 | 0.69 | 0.69 | 92 | 1005.3 |
| 20260507001003 | 15 | 198 | 6.4 | 20.9 | 0.00 | 0.69 | 0.69 | 92 | 1005.1 |
| 20260507000502 | 15 | 193 | 11.3 | 20.9 | 0.00 | 0.69 | 0.69 | 92 | 1005.1 |
| 20260507000003 | 15 | 184 | 9.7 | 17.7 | 0.18 | 0.69 | 0.69 | 92 | 1005.0 |
| 20260506235502 | 15 | 188 | 9.7 | 17.7 | 0.18 | 0.69 | 0.69 | 92 | 1005.0 |
| 20260506235003 | 15 | 182 | 8.0 | 14.5 | 0.18 | 0.69 | 0.69 | 92 | 1005.0 |
| 20260506234502 | 15 | 179 | 9.7 | 19.3 | 0.18 | 0.69 | 0.69 | 92 | 1005.1 |
| 20260506234002 | 15 | 197 | 8.0 | 19.3 | 0.18 | 0.69 | 0.69 | 92 | 1004.9 |
| 20260506233503 | 15 | 187 | 8.0 | 19.3 | 0.18 | 0.69 | 0.69 | 92 | 1005.1 |
| 20260506233002 | 15 | 198 | 12.9 | 19.3 | 0.18 | 0.69 | 0.69 | 92 | 1005.0 |
| 20260506232504 | 15 | 192 | 8.0 | 17.7 | 0.18 | 0.69 | 0.69 | 92 | 1005.0 |
| 20260506232024 | 15 | 190 | 8.0 | 17.7 | 0.15 | 0.66 | 0.66 | 92 | 1005.1 |
| 20260506231045 | 15 | 189 | 8.0 | 17.7 | 0.05 | 0.56 | 0.56 | 91 | 1005.2 |
| 20260506230503 | 15 | 191 | 6.4 | 24.1 | 0.03 | 0.53 | 0.53 | 91 | 1005.2 |
| 20260506230002 | 15 | 192 | 11.3 | 24.1 | 0.20 | 0.51 | 0.51 | 91 | 1005.4 |
| 20260506225544 | 15 | 204 | 9.7 | 22.5 | 0.18 | 0.48 | 0.48 | 91 | 1005.4 |
| 20260506225003 | 15 | 183 | 8.0 | 24.1 | 0.15 | 0.46 | 0.46 | 91 | 1005.3 |
| 20260506224502 | 15 | 197 | 9.7 | 24.1 | 0.15 | 0.46 | 0.46 | 91 | 1005.3 |
| 20260506224024 | 15 | 181 | 9.7 | 24.1 | 0.10 | 0.41 | 0.41 | 91 | 1005.3 |
| 20260506223503 | 15 | 190 | 11.3 | 24.1 | 0.10 | 0.41 | 0.41 | 91 | 1005.5 |
| 20260506223002 | 15 | 194 | 8.0 | 20.9 | 0.08 | 0.38 | 0.38 | 91 | 1005.5 |
| 20260506222503 | 15 | 190 | 9.7 | 20.9 | 0.05 | 0.36 | 0.36 | 90 | 1005.5 |
| 20260506222002 | 15 | 197 | 4.8 | 19.3 | 0.03 | 0.33 | 0.33 | 90 | 1005.5 |
| 20260506221524 | 15 | 192 | 8.0 | 19.3 | 0.03 | 0.33 | 0.33 | 90 | 1005.6 |
| 20260506221024 | 15 | 180 | 6.4 | 19.3 | 0.03 | 0.33 | 0.33 | 90 | 1005.6 |
| 20260506220524 | 15 | 189 | 9.7 | 19.3 | 0.03 | 0.33 | 0.33 | 90 | 1005.6 |
| 20260506220002 | 15 | 178 | 11.3 | 22.5 | 0.05 | 0.30 | 0.30 | 90 | 1005.7 |
| 20260506215523 | 15 | 198 | 9.7 | 22.5 | 0.05 | 0.30 | 0.30 | 90 | 1005.7 |
| 20260506215002 | 15 | 183 | 12.9 | 22.5 | 0.03 | 0.28 | 0.28 | 90 | 1005.7 |
| 20260506214524 | 15 | 185 | 12.9 | 20.9 | 0.03 | 0.28 | 0.28 | 90 | 1005.7 |
| 20260506214023 | 15 | 192 | 11.3 | 19.3 | 0.03 | 0.28 | 0.28 | 90 | 1005.7 |
| 20260506213503 | 15 | 178 | 4.8 | 16.1 | 0.03 | 0.28 | 0.28 | 91 | 1005.8 |
| 20260506213023 | 15 | 203 | 8.0 | 16.1 | 0.03 | 0.28 | 0.28 | 90 | 1005.9 |
| 20260506212524 | 15 | 174 | 9.7 | 17.7 | 0.03 | 0.28 | 0.28 | 90 | 1006.1 |
| 20260506212003 | 15 | 188 | 11.3 | 17.7 | 0.03 | 0.28 | 0.28 | 90 | 1006.1 |
| 20260506211502 | 16 | 192 | 6.4 | 16.1 | 0.03 | 0.28 | 0.28 | 89 | 1006.1 |
| 20260506211003 | 16 | 179 | 9.7 | 29.0 | 0.00 | 0.25 | 0.25 | 89 | 1006.1 |
| 20260506210502 | 16 | 212 | 9.7 | 29.0 | 0.00 | 0.25 | 0.25 | 89 | 1006.3 |
| 20260506210003 | 16 | 197 | 8.0 | 20.9 | 0.00 | 0.25 | 0.25 | 89 | 1006.2 |
| 20260506205502 | 16 | 191 | 6.4 | 16.1 | 0.15 | 0.23 | 0.23 | 89 | 1006.2 |
| 20260506205002 | 16 | 199 | 9.7 | 17.7 | 0.15 | 0.23 | 0.23 | 89 | 1006.3 |
| 20260506204503 | 16 | 180 | 8.0 | 20.9 | 0.13 | 0.20 | 0.20 | 88 | 1006.3 |
| 20260506204002 | 16 | 191 | 9.7 | 20.9 | 0.10 | 0.18 | 0.18 | 87 | 1006.2 |
| 20260506203503 | 16 | 193 | 9.7 | 20.9 | 0.10 | 0.18 | 0.18 | 87 | 1006.3 |
| 20260506203024 | 16 | 190 | 11.3 | 25.7 | 0.08 | 0.15 | 0.15 | 86 | 1006.2 |